Location: Archemont
(49.1579°N, 1.7598°E)
Time: 12:25:18
(UTC+00:00)

Transit 2A - Pass Details

Date: 16 April 2024
Orbit: 593 x 958 km, 66.7° (Epoch: 30 May)

Event Time Altitude Azimuth Distance (km) Brightness Sun altitude
Rises 08:51:37 0° 249° (WSW) 2,866 8.7 36.1°
Reaches altitude 10° 08:54:03 10° 261° (W) 1,997 7.9 36.4°
Maximum altitude 08:57:57 28° 322° (NW) 1,220 6.9 37.0°
Drops below altitude 10° 09:02:09 10° 22° (NNE) 2,158 8.3 37.5°
Sets 09:04:54 0° 34° (NNE) 3,146 9.2 37.9°
